Location: Erp
(42.9417°N, 1.2009°E)
Time: 09:28:25
(UTC+00:00)

ARIANE 5 R/B - Pass Details

Date: 12 January 2026
Orbit: 746 x 793 km, 98.8° (Epoch: 11 February)

Event Time Altitude Azimuth Distance (km) Brightness Sun altitude
Rises 18:05:43 0° 180° (S) 3,271 6.0 -14.9°
Reaches altitude 10° 18:08:06 10° 186° (S) 2,349 5.3 -15.3°
Maximum altitude 18:13:06 47° 260° (W) 1,037 3.7 -16.2°
Drops below altitude 10° 18:18:09 10° 335° (NNW) 2,366 5.2 -17.1°
Sets 18:20:34 0° 341° (NNW) 3,297 5.9 -17.5°
